[[{"header":{"parameterUnit":"m.s-1","parameterCategory":1,"la1":30.2991,"la2":30.254,"lo1":-89.0895,"lo2":-89.0444,"dy":0.0017,"dx":0.0017,"nx":28,"ny":28,"refTime":"2025-07-30T03:00:00:Z","depth":0,"parameterNumber":2,"parameterNumberName":"U-component_of_WINDS"},"data":[0,0,0,0,0,0,0,0,0,0,0,0,0,0,0,0,0,0,0,0,0,0,0,0,0,0,0,0,0,0,0,0,0,0,0,0,0,0,0,0,0,0,0,0,0,0,0,0,0,0,0,0,0,0,0,0,0,0,4.1997,4.1999,0,4.2167,4.2169,4.2171,4.212,4.2117,4.2113,4.211,4.2286,4.2294,4.2302,0,0,0,0,0,0,0,0,0,0,0,0,0,4.1628,4.1635,4.1996,4.1999,4.2001,4.2167,4.2169,4.2171,4.2121,4.2117,4.2112,4.2108,4.2284,4.2293,4.2303,0,0,0,0,0,0,0,0,0,0,0,0,0,4.1792,4.1637,4.1996,4.1996,4.1997,4.2166,4.2169,4.2172,4.2122,4.2116,4.2111,4.2106,4.2281,4.2292,4.2304,4.2485,0,0,4.2341,4.2346,0,0,0,0,0,0,0,0,4.1783,4.1806,4.1994,4.1996,4.1998,4.2117,4.2104,4.2277,4.2123,4.2075,4.211,4.2104,4.2234,4.225,4.2294,4.2493,4.2501,4.2342,4.2349,4.2354,4.2358,0,0,0,0,0,0,0,4.1772,4.1798,4.2064,4.1996,4.1999,4.1987,4.2004,4.2136,4.2182,4.2078,4.2075,4.2096,4.2235,4.2282,4.2297,4.2503,4.2342,4.2352,4.236,4.2364,4.2857,4.2863,0,0,0,0,0,0,4.1758,4.1789,4.2059,4.2069,4.1875,4.1998,4.2017,4.2084,4.2181,4.219,4.21,4.2093,4.2264,4.2283,4.2303,4.252,4.2354,4.2366,4.2372,4.2852,4.2859,4.2865,0,0,0,0,0,0,4.1751,4.1783,4.2052,4.1928,4.1961,4.201,4.2085,4.209,4.2138,4.2197,4.2205,4.214,4.2261,4.2287,4.2439,4.2525,4.2371,4.2382,4.2845,4.2854,4.2862,4.2954,0,0,0,0,0,0,4.174,4.1781,4.185,4.193,4.1968,4.2185,4.2091,4.2098,4.2158,4.215,4.2237,4.2246,4.2259,4.2422,4.2451,4.2539,4.2391,4.2837,4.2849,4.2859,4.2944,4.2965,4.2984,0,0,0,0,0,4.1727,4.187,4.1853,4.1886,4.2056,4.219,4.2212,4.2223,4.2165,4.2235,4.2273,4.2243,4.2511,4.2438,4.2471,4.2563,4.2832,4.2845,4.2858,4.2935,4.2961,4.2983,0,0,0,0,0,0,4.1799,4.188,4.1863,4.2036,4.2106,4.2181,4.2269,4.225,4.2339,4.2328,4.2338,4.2358,4.2515,4.2554,4.2471,4.2742,4.2663,4.2684,4.271,4.2735,4.2755,4.2741,4.2401,0,0,0,0,0,4.1835,4.1937,4.2003,4.2149,4.2185,4.2221,4.228,4.2282,4.2356,4.2386,4.2435,4.2508,4.2608,4.2674,4.277,4.295,4.2967,4.3029,4.3049,4.3065,4.3082,4.3178,4.3206,4.2909,4.2908,4.2908,0,0,4.191,4.1967,4.2031,4.2165,4.2219,4.2324,4.2247,4.2362,4.244,4.2404,4.255,4.2589,4.2671,4.2838,4.2913,4.2876,4.3169,4.3082,4.3094,4.3103,4.3195,4.3223,4.3248,4.2918,4.2916,4.2915,0,0,4.2101,4.2155,4.2281,4.2337,4.2421,4.2444,4.2474,4.2552,4.2576,4.2723,4.2698,4.2791,4.2964,4.3023,4.3076,4.3287,4.3262,4.3318,4.3421,4.3515,4.3538,4.3559,4.3633,4.3659,4.3335,4.3335,4.3336,0,4.2184,4.2341,4.2349,4.2466,4.2524,4.2495,4.2623,4.2677,4.2789,4.283,4.2786,4.3001,4.3054,4.3233,4.3284,4.3329,4.3363,4.3308,4.3534,4.3555,4.3575,4.3645,4.3673,4.3341,4.3341,4.334,4.334,0,4.2438,4.2547,4.2639,4.2746,4.2815,4.2937,4.2963,4.3033,4.3029,4.3056,4.3206,4.3269,4.3376,4.3419,4.3417,4.3597,4.3571,4.3531,4.3451,4.3609,4.3675,4.3702,4.335,4.3348,4.3346,4.3345,0,0,4.2678,4.2786,4.282,4.2867,4.2956,4.3041,4.3161,4.3265,4.3323,4.3401,4.3501,4.3648,4.361,4.367,4.3675,4.3757,4.3918,4.3706,4.3708,4.3742,4.4119,4.4147,4.4178,4.3903,4.3908,4.3912,4.4111,0,4.2875,4.3085,4.3095,4.3287,4.3387,4.336,4.3465,4.3531,4.356,4.3649,4.3681,4.3784,4.3728,4.3764,4.3844,4.3881,4.3993,4.3867,4.3995,4.4,4.3974,4.4213,4.4244,4.4429,4.4137,4.4142,4.4145,0,4.3132,4.3216,4.3417,4.349,4.3532,4.3626,4.3721,4.3807,4.3881,4.3896,4.3962,4.3954,4.4077,4.3994,4.4163,4.4077,4.413,4.4156,4.4163,4.4175,4.4081,4.4229,4.4489,4.4516,4.4186,4.4183,4.418,0,4.3285,4.3448,4.3589,4.363,4.372,4.3786,4.3827,4.3895,4.3957,4.404,4.4079,4.4177,4.4229,4.4305,4.4323,4.4261,4.4491,4.441,4.4506,4.4506,4.4555,4.4551,4.4825,4.4592,4.4592,4.4591,4.459,0,4.3502,4.3626,4.3658,4.3745,4.3882,4.3893,4.4028,4.4064,4.4126,4.4218,4.4202,4.429,4.4309,4.4401,4.4416,4.4552,4.4577,4.4592,4.4594,4.4593,4.459,4.4626,4.4613,4.4598,4.4597,4.4595,4.4594,0,4.3696,4.3723,4.3874,4.3946,4.3967,4.4065,4.4126,4.4209,4.4235,4.4353,4.4381,4.4423,4.453,4.4555,4.4683,4.4693,4.4854,4.4845,4.4828,4.4827,4.4921,4.4911,4.5226,4.5267,4.5009,4.5012,4.5014,0,4.3832,4.3926,4.4008,4.4068,4.4111,4.4209,4.4271,4.4285,4.435,4.4441,4.4512,4.4617,4.4701,4.4872,4.4914,4.5011,4.5003,4.5107,4.5018,4.5012,4.5003,4.4996,4.5005,4.5123,4.5126,4.5128,4.513,0,4.407,4.4079,4.4168,4.4262,4.4335,4.441,4.4482,4.4532,4.4556,4.463,4.4738,4.4803,4.4932,4.5036,4.5133,4.5175,4.5157,4.5158,4.5185,4.5183,4.5169,4.5176,4.4873,4.5151,4.5148,4.5147,4.5146,4.5145,4.4238,4.432,4.4389,4.4489,4.4544,4.461,4.4691,4.4727,4.4817,4.4922,4.4925,4.5043,4.5113,4.5242,4.5289,4.5381,4.5349,4.5389,4.5399,4.5408,4.5415,4.5156,4.5399,4.5399,4.5398,4.5398,4.5397,0,4.4474,4.4517,4.4608,4.4708,4.4786,4.4761,4.4839,4.4906,4.5009,4.5076,4.5158,4.5282,4.5382,4.5431,4.553,4.5594,4.5588,4.5619,4.5614,4.5623,4.5439,4.5405,4.5622,4.5622,4.5622,4.5622,4.5622,4.5622,4.4605,4.4741,4.4758,4.492,4.4963,4.5076,4.5122,4.5184,4.5237,4.5375,4.5457,4.5489,4.5549,4.5651,4.5742,4.5754,4.579,4.5825,4.5833,4.566,4.5637,4.5615,4.5582,4.5834,4.5834,4.6009,4.6011,4.6012]},{"header":{"parameterUnit":"m.s-1","parameterCategory":1,"la1":30.2991,"la2":30.254,"lo1":-89.0895,"lo2":-89.0444,"dy":0.0017,"dx":0.0017,"nx":28,"ny":28,"refTime":"2025-07-30T03:00:00:Z","depth":0,"parameterNumber":3,"parameterNumberName":"V-component_of_WINDS"},"data":[0,0,0,0,0,0,0,0,0,0,0,0,0,0,0,0,0,0,0,0,0,0,0,0,0,0,0,0,0,0,0,0,0,0,0,0,0,0,0,0,0,0,0,0,0,0,0,0,0,0,0,0,0,0,0,0,0,0,2.0855,2.0855,0,2.0882,2.0882,2.0882,2.0841,2.084,2.0838,2.0837,2.0863,2.0865,2.0867,0,0,0,0,0,0,0,0,0,0,0,0,0,2.0767,2.0769,2.0855,2.0855,2.0856,2.0882,2.0882,2.0882,2.0841,2.084,2.0838,2.0836,2.0862,2.0865,2.0867,0,0,0,0,0,0,0,0,0,0,0,0,0,2.0801,2.077,2.0855,2.0838,2.0837,2.0881,2.0882,2.0882,2.0842,2.0839,2.0837,2.0835,2.0862,2.0865,2.0868,2.0929,0,0,2.0877,2.0878,0,0,0,0,0,0,0,0,2.0799,2.0804,2.0841,2.084,2.0838,2.0856,2.086,2.0898,2.0842,2.084,2.0837,2.0834,2.0862,2.0865,2.0875,2.093,2.0932,2.0877,2.0879,2.088,2.0881,0,0,0,0,0,0,0,2.0797,2.0803,2.0866,2.0841,2.084,2.0829,2.0831,2.0867,2.0863,2.084,2.0837,2.0841,2.0861,2.0872,2.0875,2.0932,2.0877,2.088,2.0882,2.0883,2.1038,2.104,0,0,0,0,0,0,2.0796,2.0801,2.0865,2.0866,2.0813,2.0832,2.0835,2.0852,2.0862,2.0862,2.0843,2.0839,2.0868,2.0872,2.0876,2.0948,2.088,2.0883,2.0885,2.1036,2.1038,2.1041,0,0,0,0,0,0,2.0795,2.0803,2.0864,2.0833,2.084,2.0836,2.0856,2.0854,2.0865,2.0864,2.0863,2.0855,2.0866,2.0872,2.0916,2.0948,2.0885,2.0887,2.1033,2.1036,2.104,2.1093,0,0,0,0,0,0,2.0792,2.0802,2.0826,2.0834,2.0842,2.0904,2.0858,2.0856,2.087,2.0865,2.0875,2.0875,2.0865,2.0912,2.0919,2.0951,2.089,2.103,2.1034,2.1039,2.1088,2.1098,2.1106,0,0,0,0,0,2.0789,2.084,2.0827,2.0835,2.0871,2.0906,2.091,2.0899,2.0873,2.0896,2.0896,2.0874,2.0944,2.0917,2.0925,2.0958,2.1028,2.1033,2.1038,2.1084,2.1096,2.1106,0,0,0,0,0,0,2.0836,2.0841,2.0827,2.0882,2.0894,2.0899,2.0928,2.0911,2.0931,2.0926,2.091,2.0912,2.096,2.0963,2.0933,2.1018,2.0981,2.0988,2.1014,2.1025,2.1033,2.1032,2.0892,0,0,0,0,0,2.0853,2.0881,2.0883,2.0931,2.0938,2.0932,2.0947,2.0937,2.0948,2.0953,2.0956,2.0968,2.0992,2.1009,2.1031,2.1088,2.109,2.1115,2.1124,2.1131,2.1138,2.1167,2.1179,2.1058,2.1058,2.1058,0,0,2.0888,2.0894,2.0913,2.0941,2.0949,2.0978,2.0937,2.097,2.0991,2.0958,2.1,2.1003,2.1015,2.1066,2.1088,2.107,2.1171,2.1138,2.1144,2.1146,2.1174,2.1185,2.1196,2.1061,2.1061,2.106,0,0,2.0966,2.0974,2.1014,2.1023,2.1036,2.1032,2.1041,2.1049,2.1049,2.1091,2.1067,2.1092,2.1134,2.1143,2.1154,2.1234,2.1215,2.1242,2.1288,2.1317,2.1327,2.1335,2.1363,2.1374,2.1248,2.1248,2.1248,0,2.1008,2.1051,2.1037,2.1071,2.1084,2.1056,2.1096,2.1105,2.1125,2.1134,2.1113,2.1165,2.1172,2.1224,2.1243,2.1253,2.1263,2.1241,2.1326,2.1335,2.1342,2.1369,2.138,2.1251,2.1251,2.1251,2.125,0,2.1101,2.1131,2.1162,2.1182,2.1198,2.1235,2.1226,2.1244,2.1232,2.123,2.1272,2.1279,2.1301,2.1313,2.1302,2.1363,2.1352,2.1329,2.1292,2.1357,2.1382,2.1392,2.1256,2.1255,2.1254,2.1253,0,0,2.1211,2.1221,2.1233,2.1241,2.1253,2.1275,2.131,2.1333,2.1348,2.1362,2.1391,2.1427,2.1406,2.1417,2.1407,2.1432,2.1495,2.1406,2.1406,2.1422,2.1562,2.1579,2.1592,2.1482,2.1484,2.1485,2.1561,0,2.1288,2.135,2.1338,2.1398,2.1425,2.1398,2.1428,2.1438,2.1436,2.1459,2.1456,2.1482,2.1453,2.1459,2.1483,2.1482,2.1523,2.1476,2.1508,2.1509,2.1506,2.1605,2.1623,2.1694,2.1571,2.1573,2.1574,0,2.1388,2.1405,2.1468,2.1474,2.1485,2.1512,2.1531,2.1553,2.1563,2.156,2.1573,2.1557,2.1591,2.1554,2.16,2.1569,2.1581,2.1582,2.1584,2.1587,2.1546,2.1609,2.1717,2.1728,2.1589,2.1588,2.1587,0,2.1461,2.15,2.1542,2.155,2.1558,2.1578,2.1582,2.1591,2.1604,2.1621,2.1629,2.1649,2.166,2.1676,2.1666,2.1639,2.1713,2.1675,2.1711,2.1712,2.1728,2.1728,2.1839,2.1736,2.1736,2.1736,2.1736,0,2.1548,2.1588,2.1575,2.1601,2.1643,2.1629,2.1671,2.1672,2.168,2.1705,2.1682,2.1706,2.1691,2.1714,2.1706,2.1745,2.175,2.1748,2.1745,2.175,2.175,2.1758,2.1752,2.1739,2.1738,2.1738,2.1737,0,2.1637,2.1631,2.1675,2.1679,2.1681,2.1712,2.1715,2.1739,2.1735,2.1767,2.1774,2.1768,2.1793,2.1784,2.1811,2.1805,2.1855,2.1846,2.1852,2.185,2.1886,2.1883,2.2006,2.2021,2.1909,2.191,2.1911,0,2.1694,2.1723,2.1731,2.1746,2.1752,2.1777,2.1791,2.1777,2.1792,2.1806,2.1828,2.1851,2.1869,2.191,2.1908,2.1928,2.1919,2.1961,2.1922,2.1926,2.1919,2.1918,2.192,2.1969,2.197,2.1971,2.1972,0,2.1795,2.179,2.1811,2.1831,2.1848,2.1863,2.1875,2.1889,2.1876,2.1894,2.1919,2.1933,2.1961,2.1984,2.2002,2.2005,2.1987,2.1984,2.1994,2.1999,2.2001,2.2,2.1873,2.1982,2.1981,2.198,2.198,2.1979,2.1869,2.1894,2.1902,2.1926,2.1934,2.1946,2.1969,2.1968,2.1989,2.201,2.2,2.203,2.2038,2.206,2.2067,2.2089,2.2072,2.2086,2.2089,2.2093,2.2098,2.1997,2.2092,2.2092,2.2091,2.2091,2.2091,0,2.1968,2.1972,2.1995,2.2013,2.2032,2.2012,2.2025,2.2042,2.2068,2.2077,2.2095,2.2124,2.2146,2.2145,2.2166,2.2184,2.2175,2.2189,2.2188,2.2189,2.2111,2.2101,2.2195,2.2195,2.2195,2.2195,2.2195,2.2195,2.2022,2.2063,2.2058,2.2102,2.2105,2.2134,2.2143,2.2154,2.2161,2.2195,2.2213,2.2212,2.2217,2.2237,2.2257,2.2256,2.2264,2.2281,2.2277,2.2205,2.2194,2.2184,2.2175,2.2283,2.2283,2.2353,2.2353,2.2354]}]]